FLOCK 4BE-28 (60519 NORAD) Tracking and Keplerian Element Data

This shows tracking and keplerian element data for the satellite.

Feedback or suggestion? Click here.




ElementValue
Catalog60519
NameFLOCK 4BE-28
Epoch Orbit865
Epoch Day286.79764376
Epoch Year2024
RAAN1.5301
Inclination97.4355
Eccentricity0.0006213
Argument of Perigee316.2124
Mean Anonmoly43.8618
Mean Motion15.20659213
Decay Rate0.00021661
L11 60519U 24149BD 24286.79764376 .00021661 00000+0 98720-3 0 9996
L22 60519 97.4355 1.5301 0006213 316.2124 43.8618 15.20659213 8650



Live tracking and technical data element details for FLOCK 4BE-28 (NORAD 60519). FLOCK 4BE-28 can be tracked NOW for your location showing map with azimuth and elevation plus other details from your city location.







IsCatalogInMostPopularTable: catalog: 60519, numindb: 7
Update: records affected: 1



GetName: 60519 FLOCK 4BE-28

Hit Count: updated at: Wed, 04 Dec 2024 18:36:11 GMT